Year,Month,Day,Hour,Minute,Value (Times are PST for temperature in C)
2009,06,03,00,00,21.40
2009,06,03,00,01,21.40
2009,06,03,00,02,21.40
2009,06,03,00,03,21.30
2009,06,03,00,04,21.30
2009,06,03,00,05,21.30
2009,06,03,00,06,21.30
2009,06,03,00,07,21.30
2009,06,03,00,08,21.30
2009,06,03,00,09,21.30
2009,06,03,00,10,21.30
2009,06,03,00,11,21.30
2009,06,03,00,12,21.20
2009,06,03,00,13,21.20
2009,06,03,00,14,21.00
2009,06,03,00,15,21.00
2009,06,03,00,16,20.90
2009,06,03,00,17,20.80
2009,06,03,00,18,20.70
2009,06,03,00,19,20.70
2009,06,03,00,20,20.60
2009,06,03,00,21,20.50
2009,06,03,00,22,20.50
2009,06,03,00,23,20.40
2009,06,03,00,24,20.40
2009,06,03,00,25,20.40
2009,06,03,00,26,20.40
2009,06,03,00,27,20.40
2009,06,03,00,28,20.40
2009,06,03,00,29,20.40
2009,06,03,00,30,20.30
2009,06,03,00,31,20.30
2009,06,03,00,32,20.30
2009,06,03,00,33,20.20
2009,06,03,00,34,20.20
2009,06,03,00,35,20.20
2009,06,03,00,36,20.20
2009,06,03,00,37,20.20
2009,06,03,00,38,20.20
2009,06,03,00,39,20.30
2009,06,03,00,40,20.30
2009,06,03,00,41,20.30
2009,06,03,00,42,20.30
2009,06,03,00,43,20.40
2009,06,03,00,44,20.40
2009,06,03,00,45,20.40
2009,06,03,00,46,20.50
2009,06,03,00,47,20.50
2009,06,03,00,48,20.60
2009,06,03,00,49,20.70
2009,06,03,00,50,20.70
2009,06,03,00,51,20.70
2009,06,03,00,52,20.70
2009,06,03,00,53,20.80
2009,06,03,00,54,20.90
2009,06,03,00,55,21.00
2009,06,03,00,56,21.10
2009,06,03,00,57,21.20
2009,06,03,00,58,21.20
2009,06,03,00,59,21.30
2009,06,03,01,00,21.30
2009,06,03,01,01,21.40
2009,06,03,01,02,21.50
2009,06,03,01,03,21.50
2009,06,03,01,04,21.60
2009,06,03,01,05,21.60
2009,06,03,01,06,21.60
2009,06,03,01,07,21.70
2009,06,03,01,08,21.70
2009,06,03,01,09,21.70
2009,06,03,01,10,21.70
2009,06,03,01,11,21.70
2009,06,03,01,12,21.80
2009,06,03,01,13,21.80
2009,06,03,01,14,21.90
2009,06,03,01,15,21.90
2009,06,03,01,16,21.90
2009,06,03,01,17,22.00
2009,06,03,01,18,22.10
2009,06,03,01,19,22.10
2009,06,03,01,20,22.10
2009,06,03,01,21,22.10
2009,06,03,01,22,22.10
2009,06,03,01,23,22.10
2009,06,03,01,24,22.00
2009,06,03,01,25,22.00
2009,06,03,01,26,22.00
2009,06,03,01,27,21.90
2009,06,03,01,28,21.80
2009,06,03,01,29,21.70
2009,06,03,01,30,21.60
2009,06,03,01,31,21.60
2009,06,03,01,32,21.60
2009,06,03,01,33,21.60
2009,06,03,01,34,21.50
2009,06,03,01,35,21.40
2009,06,03,01,36,21.40
2009,06,03,01,37,21.30
2009,06,03,01,38,21.20
2009,06,03,01,39,21.10
2009,06,03,01,40,21.00
2009,06,03,01,41,20.90
2009,06,03,01,42,20.80
2009,06,03,01,43,20.80
2009,06,03,01,44,20.70
2009,06,03,01,45,20.70
2009,06,03,01,46,20.70
2009,06,03,01,47,20.60
2009,06,03,01,48,20.60
2009,06,03,01,49,20.60
2009,06,03,01,50,20.60
2009,06,03,01,51,20.50
2009,06,03,01,52,20.50
2009,06,03,01,53,20.40
2009,06,03,01,54,20.30
2009,06,03,01,55,20.20
2009,06,03,01,56,20.00
2009,06,03,01,57,19.80
2009,06,03,01,58,19.70
2009,06,03,01,59,19.50
2009,06,03,02,00,19.30
2009,06,03,02,01,19.20
2009,06,03,02,02,19.00
2009,06,03,02,03,18.90
2009,06,03,02,04,18.80
2009,06,03,02,05,18.70
2009,06,03,02,06,18.70
2009,06,03,02,07,18.60
2009,06,03,02,08,18.50
2009,06,03,02,09,18.50
2009,06,03,02,10,18.40
2009,06,03,02,11,18.40
2009,06,03,02,12,18.40
2009,06,03,02,13,18.30
2009,06,03,02,14,18.30
2009,06,03,02,15,18.30
2009,06,03,02,16,18.30
2009,06,03,02,17,18.30
2009,06,03,02,18,18.20
2009,06,03,02,19,18.20
2009,06,03,02,20,18.10
2009,06,03,02,21,18.10
2009,06,03,02,22,18.00
2009,06,03,02,23,17.90
2009,06,03,02,24,17.90
2009,06,03,02,25,17.80
2009,06,03,02,26,17.80
2009,06,03,02,27,17.70
2009,06,03,02,28,17.70
2009,06,03,02,29,17.60
2009,06,03,02,30,17.60
2009,06,03,02,31,17.50
2009,06,03,02,32,17.40
2009,06,03,02,33,17.40
2009,06,03,02,34,17.40
2009,06,03,02,35,17.30
2009,06,03,02,36,17.30
2009,06,03,02,37,17.20
2009,06,03,02,38,17.10
2009,06,03,02,39,17.10
2009,06,03,02,40,17.00
2009,06,03,02,41,16.90
2009,06,03,02,42,16.90
2009,06,03,02,43,16.80
2009,06,03,02,44,16.70
2009,06,03,02,45,16.60
2009,06,03,02,46,16.60
2009,06,03,02,47,16.50
2009,06,03,02,48,16.40
2009,06,03,02,49,16.30
2009,06,03,02,50,16.20
2009,06,03,02,51,16.20
2009,06,03,02,52,16.10
2009,06,03,02,53,16.00
2009,06,03,02,54,16.00
2009,06,03,02,55,15.90
2009,06,03,02,56,15.80
2009,06,03,02,57,15.70
2009,06,03,02,58,15.70
2009,06,03,02,59,15.70
2009,06,03,03,00,15.60
2009,06,03,03,01,15.60
2009,06,03,03,02,15.60
2009,06,03,03,03,15.60
2009,06,03,03,04,15.60
2009,06,03,03,05,15.60
2009,06,03,03,06,15.50
2009,06,03,03,07,15.40
2009,06,03,03,08,15.40
2009,06,03,03,09,15.40
2009,06,03,03,10,15.40
2009,06,03,03,11,15.30
2009,06,03,03,12,15.30
2009,06,03,03,13,15.30
2009,06,03,03,14,15.30
2009,06,03,03,15,15.30
2009,06,03,03,16,15.20
2009,06,03,03,17,15.20
2009,06,03,03,18,15.20
2009,06,03,03,19,15.10
2009,06,03,03,20,15.10
2009,06,03,03,21,15.10
2009,06,03,03,22,15.10
2009,06,03,03,23,15.00
2009,06,03,03,24,15.00
2009,06,03,03,25,15.00
2009,06,03,03,26,15.00
2009,06,03,03,27,14.90
2009,06,03,03,28,14.80
2009,06,03,03,29,14.80
2009,06,03,03,30,14.70
2009,06,03,03,31,14.70
2009,06,03,03,32,14.70
2009,06,03,03,33,14.60
2009,06,03,03,34,14.60
2009,06,03,03,35,14.60
2009,06,03,03,36,14.60
2009,06,03,03,37,14.60
2009,06,03,03,38,14.60
2009,06,03,03,39,14.60
2009,06,03,03,40,14.50
2009,06,03,03,41,14.50
2009,06,03,03,42,14.50
2009,06,03,03,43,14.50
2009,06,03,03,44,14.50
2009,06,03,03,45,14.40
2009,06,03,03,46,14.40
2009,06,03,03,47,14.40
2009,06,03,03,48,14.40
2009,06,03,03,49,14.40
2009,06,03,03,50,14.40
2009,06,03,03,51,14.40
2009,06,03,03,52,14.30
2009,06,03,03,53,14.30
2009,06,03,03,54,14.30
2009,06,03,03,55,14.30
2009,06,03,03,56,14.30
2009,06,03,03,57,14.30
2009,06,03,03,58,14.20
2009,06,03,03,59,14.20
2009,06,03,04,00,14.20
2009,06,03,04,01,14.20
2009,06,03,04,02,14.20
2009,06,03,04,03,14.20
2009,06,03,04,04,14.20
2009,06,03,04,05,14.20
2009,06,03,04,06,14.20
2009,06,03,04,07,14.20
2009,06,03,04,08,14.20
2009,06,03,04,09,14.20
2009,06,03,04,10,14.20
2009,06,03,04,11,14.20
2009,06,03,04,12,14.20
2009,06,03,04,13,14.20
2009,06,03,04,14,14.20
2009,06,03,04,15,14.10
2009,06,03,04,16,14.10
2009,06,03,04,17,14.10
2009,06,03,04,18,14.10
2009,06,03,04,19,14.00
2009,06,03,04,20,14.00
2009,06,03,04,21,14.00
2009,06,03,04,22,13.90
2009,06,03,04,23,13.90
2009,06,03,04,24,13.90
2009,06,03,04,25,13.90
2009,06,03,04,26,13.90
2009,06,03,04,27,13.80
2009,06,03,04,28,13.80
2009,06,03,04,29,13.90
2009,06,03,04,30,14.00
2009,06,03,04,31,14.00
2009,06,03,04,32,14.10
2009,06,03,04,33,14.20
2009,06,03,04,34,14.30
2009,06,03,04,35,14.30
2009,06,03,04,36,14.40
2009,06,03,04,37,14.50
2009,06,03,04,38,14.50
2009,06,03,04,39,14.50
2009,06,03,04,40,14.60
2009,06,03,04,41,14.60
2009,06,03,04,42,14.60
2009,06,03,04,43,14.60
2009,06,03,04,44,14.60
2009,06,03,04,45,14.70
2009,06,03,04,46,14.70
2009,06,03,04,47,14.60
2009,06,03,04,48,14.60
2009,06,03,04,49,14.60
2009,06,03,04,50,14.60
2009,06,03,04,51,14.60
2009,06,03,04,52,14.60
2009,06,03,04,53,14.60
2009,06,03,04,54,14.60
2009,06,03,04,55,14.60
2009,06,03,04,56,14.60
2009,06,03,04,57,14.60
2009,06,03,04,58,14.60
2009,06,03,04,59,14.50
2009,06,03,05,00,14.50
2009,06,03,05,01,14.50
2009,06,03,05,02,14.40
2009,06,03,05,03,14.40
2009,06,03,05,04,14.40
2009,06,03,05,05,14.30
2009,06,03,05,06,14.30
2009,06,03,05,07,14.30
2009,06,03,05,08,14.30
2009,06,03,05,09,14.30
2009,06,03,05,10,14.30
2009,06,03,05,11,14.30
2009,06,03,05,12,14.30
2009,06,03,05,13,14.30
2009,06,03,05,14,14.30
2009,06,03,05,15,14.30
2009,06,03,05,16,14.30
2009,06,03,05,17,14.30
2009,06,03,05,18,14.30
2009,06,03,05,19,14.20
2009,06,03,05,20,14.20
2009,06,03,05,21,14.20
2009,06,03,05,22,14.20
2009,06,03,05,23,14.20
2009,06,03,05,24,14.10
2009,06,03,05,25,14.10
2009,06,03,05,26,14.10
2009,06,03,05,27,14.10
2009,06,03,05,28,14.10
2009,06,03,05,29,14.10
2009,06,03,05,30,14.20
2009,06,03,05,31,14.20
2009,06,03,05,32,14.20
2009,06,03,05,33,14.20
2009,06,03,05,34,14.20
2009,06,03,05,35,14.30
2009,06,03,05,36,14.30
2009,06,03,05,37,14.30
2009,06,03,05,38,14.30
2009,06,03,05,39,14.40
2009,06,03,05,40,14.30
2009,06,03,05,41,14.30
2009,06,03,05,42,14.30
2009,06,03,05,43,14.30
2009,06,03,05,44,14.30
2009,06,03,05,45,14.30
2009,06,03,05,46,14.40
2009,06,03,05,47,14.40
2009,06,03,05,48,14.40
2009,06,03,05,49,14.40
2009,06,03,05,50,14.50
2009,06,03,05,51,14.50
2009,06,03,05,52,14.60
2009,06,03,05,53,14.60
2009,06,03,05,54,14.70
2009,06,03,05,55,14.70
2009,06,03,05,56,14.80
2009,06,03,05,57,14.80
2009,06,03,05,58,14.80
2009,06,03,05,59,14.90
2009,06,03,06,00,15.00
2009,06,03,06,01,15.00
2009,06,03,06,02,15.10
2009,06,03,06,03,15.10
2009,06,03,06,04,15.10
2009,06,03,06,05,15.10
2009,06,03,06,06,15.10
2009,06,03,06,07,15.20
2009,06,03,06,08,15.20
2009,06,03,06,09,15.20
2009,06,03,06,10,15.20
2009,06,03,06,11,15.30
2009,06,03,06,12,15.30
2009,06,03,06,13,15.30
2009,06,03,06,14,15.30
2009,06,03,06,15,15.30
2009,06,03,06,16,15.30
2009,06,03,06,17,15.30
2009,06,03,06,18,15.40
2009,06,03,06,19,15.40
2009,06,03,06,20,15.40
2009,06,03,06,21,15.40
2009,06,03,06,22,15.50
2009,06,03,06,23,15.50
2009,06,03,06,24,15.60
2009,06,03,06,25,15.60
2009,06,03,06,26,15.70
2009,06,03,06,27,15.70
2009,06,03,06,28,15.70
2009,06,03,06,29,15.80
2009,06,03,06,30,15.80
2009,06,03,06,31,15.90
2009,06,03,06,32,15.90
2009,06,03,06,33,16.00
2009,06,03,06,34,16.00
2009,06,03,06,35,16.10
2009,06,03,06,36,16.10
2009,06,03,06,37,16.10
2009,06,03,06,38,16.20
2009,06,03,06,39,16.20
2009,06,03,06,40,16.20
2009,06,03,06,41,16.20
2009,06,03,06,42,16.30
2009,06,03,06,43,16.30
2009,06,03,06,44,16.30
2009,06,03,06,45,16.30
2009,06,03,06,46,16.30
2009,06,03,06,47,16.40
2009,06,03,06,48,16.40
2009,06,03,06,49,16.40
2009,06,03,06,50,16.40
2009,06,03,06,51,16.50
2009,06,03,06,52,16.50
2009,06,03,06,53,16.60
2009,06,03,06,54,16.70
2009,06,03,06,55,16.70
2009,06,03,06,56,16.80
2009,06,03,06,57,16.80
2009,06,03,06,58,16.80
2009,06,03,06,59,16.90
2009,06,03,07,00,16.90
2009,06,03,07,01,17.00
2009,06,03,07,02,17.00
2009,06,03,07,03,17.10
2009,06,03,07,04,17.20
2009,06,03,07,05,17.20
2009,06,03,07,06,17.30
2009,06,03,07,07,17.30
2009,06,03,07,08,17.40
2009,06,03,07,09,17.50
2009,06,03,07,10,17.50
2009,06,03,07,11,17.60
2009,06,03,07,12,17.60
2009,06,03,07,13,17.80
2009,06,03,07,14,17.90
2009,06,03,07,15,18.00
2009,06,03,07,16,18.10
2009,06,03,07,17,18.20
2009,06,03,07,18,18.30
2009,06,03,07,19,18.30
2009,06,03,07,20,18.40
2009,06,03,07,21,18.50
2009,06,03,07,22,18.60
2009,06,03,07,23,18.70
2009,06,03,07,24,18.70
2009,06,03,07,25,18.80
2009,06,03,07,26,18.90
2009,06,03,07,27,19.00
2009,06,03,07,28,19.10
2009,06,03,07,29,19.20
2009,06,03,07,30,19.20
2009,06,03,07,31,19.30
2009,06,03,07,32,19.40
2009,06,03,07,33,19.50
2009,06,03,07,34,19.50
2009,06,03,07,35,19.60
2009,06,03,07,36,19.70
2009,06,03,07,37,19.80
2009,06,03,07,38,19.80
2009,06,03,07,39,19.90
2009,06,03,07,40,20.00
2009,06,03,07,41,20.10
2009,06,03,07,42,20.20
2009,06,03,07,43,20.30
2009,06,03,07,44,20.40
2009,06,03,07,45,20.40
2009,06,03,07,46,20.50
2009,06,03,07,47,20.60
2009,06,03,07,48,20.70
2009,06,03,07,49,20.80
2009,06,03,07,50,20.90
2009,06,03,07,51,21.00
2009,06,03,07,52,21.10
2009,06,03,07,53,21.20
2009,06,03,07,54,21.30
2009,06,03,07,55,21.40
2009,06,03,07,56,21.40
2009,06,03,07,57,21.50
2009,06,03,07,58,21.60
2009,06,03,07,59,21.60
2009,06,03,08,00,21.60
2009,06,03,08,01,21.60
2009,06,03,08,02,21.60
2009,06,03,08,03,21.60
2009,06,03,08,04,21.60
2009,06,03,08,05,21.60
2009,06,03,08,06,21.70
2009,06,03,08,07,21.70
2009,06,03,08,08,21.70
2009,06,03,08,09,21.80
2009,06,03,08,10,21.80
2009,06,03,08,11,21.90
2009,06,03,08,12,21.90
2009,06,03,08,13,22.00
2009,06,03,08,14,22.00
2009,06,03,08,15,22.10
2009,06,03,08,16,22.20
2009,06,03,08,17,22.30
2009,06,03,08,18,22.30
2009,06,03,08,19,22.40
2009,06,03,08,20,22.50
2009,06,03,08,21,22.50
2009,06,03,08,22,22.60
2009,06,03,08,23,22.60
2009,06,03,08,24,22.70
2009,06,03,08,25,22.70
2009,06,03,08,26,22.70
2009,06,03,08,27,22.80
2009,06,03,08,28,22.80
2009,06,03,08,29,22.80
2009,06,03,08,30,22.90
2009,06,03,08,31,22.90
2009,06,03,08,32,23.00
2009,06,03,08,33,23.00
2009,06,03,08,34,23.00
2009,06,03,08,35,23.00
2009,06,03,08,36,23.00
2009,06,03,08,37,23.10
2009,06,03,08,38,23.10
2009,06,03,08,39,23.10
2009,06,03,08,40,23.10
2009,06,03,08,41,23.10
2009,06,03,08,42,23.20
2009,06,03,08,43,23.20
2009,06,03,08,44,23.20
2009,06,03,08,45,23.20
2009,06,03,08,46,23.20
2009,06,03,08,47,23.30
2009,06,03,08,48,23.30
2009,06,03,08,49,23.30
2009,06,03,08,50,23.40
2009,06,03,08,51,23.40
2009,06,03,08,52,23.50
2009,06,03,08,53,23.60
2009,06,03,08,54,23.60
2009,06,03,08,55,23.70
2009,06,03,08,56,23.80
2009,06,03,08,57,23.80
2009,06,03,08,58,23.90
2009,06,03,08,59,24.00
2009,06,03,09,00,24.10
2009,06,03,09,01,24.10
2009,06,03,09,02,24.20
2009,06,03,09,03,24.30
2009,06,03,09,04,24.30
2009,06,03,09,05,24.40
2009,06,03,09,06,24.50
2009,06,03,09,07,24.60
2009,06,03,09,08,24.70
2009,06,03,09,09,24.70
2009,06,03,09,10,24.80
2009,06,03,09,11,24.80
2009,06,03,09,12,24.80
2009,06,03,09,13,24.80
2009,06,03,09,14,24.80
2009,06,03,09,15,24.80
2009,06,03,09,16,24.80
2009,06,03,09,17,24.80
2009,06,03,09,18,24.80
2009,06,03,09,19,24.70
2009,06,03,09,20,24.70
2009,06,03,09,21,24.70
2009,06,03,09,22,24.70
2009,06,03,09,23,24.70
2009,06,03,09,24,24.70
2009,06,03,09,25,24.80
2009,06,03,09,26,24.80
2009,06,03,09,27,24.80
2009,06,03,09,28,24.70
2009,06,03,09,29,24.80
2009,06,03,09,30,24.80
2009,06,03,09,31,24.80
2009,06,03,09,32,24.80
2009,06,03,09,33,24.80
2009,06,03,09,34,24.80
2009,06,03,09,35,24.80
2009,06,03,09,36,24.80
2009,06,03,09,37,24.80
2009,06,03,09,38,24.80
2009,06,03,09,39,24.80
2009,06,03,09,40,24.80
2009,06,03,09,41,24.80
2009,06,03,09,42,24.80
2009,06,03,09,43,24.70
2009,06,03,09,44,24.70
2009,06,03,09,45,24.70
2009,06,03,09,46,24.80
2009,06,03,09,47,24.80
2009,06,03,09,48,24.80
2009,06,03,09,49,24.90
2009,06,03,09,50,24.90
2009,06,03,09,51,25.00
2009,06,03,09,52,25.00
2009,06,03,09,53,25.10
2009,06,03,09,54,25.20
2009,06,03,09,55,25.20
2009,06,03,09,56,25.20
2009,06,03,09,57,25.30
2009,06,03,09,58,25.30
2009,06,03,09,59,25.30
2009,06,03,10,00,25.40
2009,06,03,10,01,25.40
2009,06,03,10,02,25.50
2009,06,03,10,03,25.50
2009,06,03,10,04,25.60
2009,06,03,10,05,25.60
2009,06,03,10,06,25.70
2009,06,03,10,07,25.80
2009,06,03,10,08,25.90
2009,06,03,10,09,26.00
2009,06,03,10,10,26.00
2009,06,03,10,11,25.90
2009,06,03,10,12,25.90
2009,06,03,10,13,25.90
2009,06,03,10,14,26.00
2009,06,03,10,15,26.00
2009,06,03,10,16,26.10
2009,06,03,10,17,26.10
2009,06,03,10,18,26.20
2009,06,03,10,19,26.20
2009,06,03,10,20,26.20
2009,06,03,10,21,26.20
2009,06,03,10,22,26.10
2009,06,03,10,23,26.10
2009,06,03,10,24,26.00
2009,06,03,10,25,26.00
2009,06,03,10,26,26.00
2009,06,03,10,27,26.10
2009,06,03,10,28,26.10
2009,06,03,10,29,26.20
2009,06,03,10,30,26.20
2009,06,03,10,31,26.30
2009,06,03,10,32,26.40
2009,06,03,10,33,26.40
2009,06,03,10,34,26.40
2009,06,03,10,35,26.30
2009,06,03,10,36,26.30
2009,06,03,10,37,26.20
2009,06,03,10,38,26.10
2009,06,03,10,39,26.10
2009,06,03,10,40,26.10
2009,06,03,10,41,26.10
2009,06,03,10,42,26.20
2009,06,03,10,43,26.20
2009,06,03,10,44,26.20
2009,06,03,10,45,26.20
2009,06,03,10,46,26.30
2009,06,03,10,47,26.30
2009,06,03,10,48,26.30
2009,06,03,10,49,26.30
2009,06,03,10,50,26.40
2009,06,03,10,51,26.50
2009,06,03,10,52,26.50
2009,06,03,10,53,26.60
2009,06,03,10,54,26.60
2009,06,03,10,55,26.60
2009,06,03,10,56,26.60
2009,06,03,10,57,26.70
2009,06,03,10,58,26.60
2009,06,03,10,59,26.60
2009,06,03,11,00,26.60
2009,06,03,11,01,26.60
2009,06,03,11,02,26.60
2009,06,03,11,03,26.60
2009,06,03,11,04,26.60
2009,06,03,11,05,26.60
2009,06,03,11,06,26.60
2009,06,03,11,07,26.60
2009,06,03,11,08,26.60
2009,06,03,11,09,26.70
2009,06,03,11,10,26.70
2009,06,03,11,11,26.70
2009,06,03,11,12,26.70
2009,06,03,11,13,26.80
2009,06,03,11,14,26.80
2009,06,03,11,15,26.80
2009,06,03,11,16,26.80
2009,06,03,11,17,26.90
2009,06,03,11,18,26.90
2009,06,03,11,19,26.90
2009,06,03,11,20,26.90
2009,06,03,11,21,26.90
2009,06,03,11,22,26.90
2009,06,03,11,23,26.90
2009,06,03,11,24,26.90
2009,06,03,11,25,26.90
2009,06,03,11,26,26.90
2009,06,03,11,27,27.00
2009,06,03,11,28,27.00
2009,06,03,11,29,27.10
2009,06,03,11,30,27.20
2009,06,03,11,31,27.20
2009,06,03,11,32,27.20
2009,06,03,11,33,27.20
2009,06,03,11,34,27.30
2009,06,03,11,35,27.30
2009,06,03,11,36,27.30
2009,06,03,11,37,27.30
2009,06,03,11,38,27.30
2009,06,03,11,39,27.30
2009,06,03,11,40,27.30
2009,06,03,11,41,27.30
2009,06,03,11,42,27.20
2009,06,03,11,43,27.20
2009,06,03,11,44,27.20
2009,06,03,11,45,27.30
2009,06,03,11,46,27.20
2009,06,03,11,47,27.20
2009,06,03,11,48,27.20
2009,06,03,11,49,27.10
2009,06,03,11,50,27.10
2009,06,03,11,51,27.10
2009,06,03,11,52,27.10
2009,06,03,11,53,27.10
2009,06,03,11,54,27.20
2009,06,03,11,55,27.30
2009,06,03,11,56,27.30
2009,06,03,11,57,27.30
2009,06,03,11,58,27.30
2009,06,03,11,59,27.30
2009,06,03,12,00,27.40
2009,06,03,12,01,27.40
2009,06,03,12,02,27.40
2009,06,03,12,03,27.40
2009,06,03,12,04,27.40
2009,06,03,12,05,27.50
2009,06,03,12,06,27.60
2009,06,03,12,07,27.60
2009,06,03,12,08,27.70
2009,06,03,12,09,27.70
2009,06,03,12,10,27.70
2009,06,03,12,11,27.70
2009,06,03,12,12,27.70
2009,06,03,12,13,27.70
2009,06,03,12,14,27.60
2009,06,03,12,15,27.60
2009,06,03,12,16,27.60
2009,06,03,12,17,27.60
2009,06,03,12,18,27.60
2009,06,03,12,19,27.60
2009,06,03,12,20,27.60
2009,06,03,12,21,27.70
2009,06,03,12,22,27.70
2009,06,03,12,23,27.70
2009,06,03,12,24,27.60
2009,06,03,12,25,27.60
2009,06,03,12,26,27.50
2009,06,03,12,27,27.50
2009,06,03,12,28,27.60
2009,06,03,12,29,27.60
2009,06,03,12,30,27.60
2009,06,03,12,31,27.70
2009,06,03,12,32,27.80
2009,06,03,12,33,27.90
2009,06,03,12,34,28.00
2009,06,03,12,35,28.00
2009,06,03,12,36,28.00
2009,06,03,12,37,28.00
2009,06,03,12,38,28.10
2009,06,03,12,39,28.20
2009,06,03,12,40,28.20
2009,06,03,12,41,28.30
2009,06,03,12,42,28.30
2009,06,03,12,43,28.20
2009,06,03,12,44,28.20
2009,06,03,12,45,28.30
2009,06,03,12,46,28.30
2009,06,03,12,47,28.30
2009,06,03,12,48,28.40
2009,06,03,12,49,28.40
2009,06,03,12,50,28.40
2009,06,03,12,51,28.40
2009,06,03,12,52,28.40
2009,06,03,12,53,28.40
2009,06,03,12,54,28.40
2009,06,03,12,55,28.40
2009,06,03,12,56,28.40
2009,06,03,12,57,28.40
2009,06,03,12,58,28.50
2009,06,03,12,59,28.50
2009,06,03,13,00,28.50
2009,06,03,13,01,28.40
2009,06,03,13,02,28.40
2009,06,03,13,03,28.30
2009,06,03,13,04,28.30
2009,06,03,13,05,28.40
2009,06,03,13,06,28.40
2009,06,03,13,07,28.40
2009,06,03,13,08,28.40
2009,06,03,13,09,28.40
2009,06,03,13,10,28.50
2009,06,03,13,11,28.60
2009,06,03,13,12,28.70
2009,06,03,13,13,28.70
2009,06,03,13,14,28.70
2009,06,03,13,15,28.70
2009,06,03,13,16,28.80
2009,06,03,13,17,28.80
2009,06,03,13,18,28.80
2009,06,03,13,19,28.90
2009,06,03,13,20,28.90
2009,06,03,13,21,28.90
2009,06,03,13,22,28.90
2009,06,03,13,23,28.90
2009,06,03,13,24,29.00
2009,06,03,13,25,29.00
2009,06,03,13,26,29.10
2009,06,03,13,27,29.10
2009,06,03,13,28,29.10
2009,06,03,13,29,29.10
2009,06,03,13,30,29.10
2009,06,03,13,31,29.10
2009,06,03,13,32,29.10
2009,06,03,13,33,29.10
2009,06,03,13,34,29.10
2009,06,03,13,35,29.20
2009,06,03,13,36,29.20
2009,06,03,13,37,29.30
2009,06,03,13,38,29.30
2009,06,03,13,39,29.40
2009,06,03,13,40,29.50
2009,06,03,13,41,29.60
2009,06,03,13,42,29.60
2009,06,03,13,43,29.70
2009,06,03,13,44,29.80
2009,06,03,13,45,29.80
2009,06,03,13,46,29.80
2009,06,03,13,47,29.80
2009,06,03,13,48,29.80
2009,06,03,13,49,29.80
2009,06,03,13,50,29.80
2009,06,03,13,51,29.80
2009,06,03,13,52,29.80
2009,06,03,13,53,29.90
2009,06,03,13,54,30.00
2009,06,03,13,55,30.00
2009,06,03,13,56,30.00
2009,06,03,13,57,29.90
2009,06,03,13,58,29.90
2009,06,03,13,59,30.00
2009,06,03,14,00,30.00
2009,06,03,14,01,30.00
2009,06,03,14,02,30.10
2009,06,03,14,03,30.10
2009,06,03,14,04,30.20
2009,06,03,14,05,30.20
2009,06,03,14,06,30.20
2009,06,03,14,07,30.30
2009,06,03,14,08,30.30
2009,06,03,14,09,30.30
2009,06,03,14,10,30.40
2009,06,03,14,11,30.40
2009,06,03,14,12,30.50
2009,06,03,14,13,30.50
2009,06,03,14,14,30.40
2009,06,03,14,15,30.40
2009,06,03,14,16,30.40
2009,06,03,14,17,30.40
2009,06,03,14,18,30.40
2009,06,03,14,19,30.40
2009,06,03,14,20,30.40
2009,06,03,14,21,30.50
2009,06,03,14,22,30.50
2009,06,03,14,23,30.60
2009,06,03,14,24,30.60
2009,06,03,14,25,30.60
2009,06,03,14,26,30.70
2009,06,03,14,27,30.70
2009,06,03,14,28,30.70
2009,06,03,14,29,30.70
2009,06,03,14,30,30.70
2009,06,03,14,31,30.80
2009,06,03,14,32,30.80
2009,06,03,14,33,30.90
2009,06,03,14,34,30.90
2009,06,03,14,35,31.00
2009,06,03,14,36,31.00
2009,06,03,14,37,31.10
2009,06,03,14,38,31.10
2009,06,03,14,39,31.10
2009,06,03,14,40,30.90
2009,06,03,14,41,30.90
2009,06,03,14,42,30.90
2009,06,03,14,43,30.80
2009,06,03,14,44,30.90
2009,06,03,14,45,30.90
2009,06,03,14,46,30.90
2009,06,03,14,47,30.90
2009,06,03,14,48,30.90
2009,06,03,14,49,31.00
2009,06,03,14,50,31.00
2009,06,03,14,51,31.10
2009,06,03,14,52,31.10
2009,06,03,14,53,31.10
2009,06,03,14,54,31.10
2009,06,03,14,55,31.00
2009,06,03,14,56,31.00
2009,06,03,14,57,31.00
2009,06,03,14,58,31.00
2009,06,03,14,59,31.00
2009,06,03,15,00,31.00
2009,06,03,15,01,31.00
2009,06,03,15,02,31.00
2009,06,03,15,03,31.00
2009,06,03,15,04,31.00
2009,06,03,15,05,31.00
2009,06,03,15,06,31.10
2009,06,03,15,07,31.10
2009,06,03,15,08,31.10
2009,06,03,15,09,31.10
2009,06,03,15,10,31.10
2009,06,03,15,11,31.10
2009,06,03,15,12,31.10
2009,06,03,15,13,31.10
2009,06,03,15,14,31.10
2009,06,03,15,15,31.10
2009,06,03,15,16,31.10
2009,06,03,15,17,31.10
2009,06,03,15,18,31.10
2009,06,03,15,19,31.10
2009,06,03,15,20,31.20
2009,06,03,15,21,31.20
2009,06,03,15,22,31.30
2009,06,03,15,23,31.30
2009,06,03,15,24,31.30
2009,06,03,15,25,31.30
2009,06,03,15,26,31.20
2009,06,03,15,27,31.20
2009,06,03,15,28,31.20
2009,06,03,15,29,31.20
2009,06,03,15,30,31.20
2009,06,03,15,31,31.20
2009,06,03,15,32,31.20
2009,06,03,15,33,31.20
2009,06,03,15,34,31.30
2009,06,03,15,35,31.30
2009,06,03,15,36,31.30
2009,06,03,15,37,31.30
2009,06,03,15,38,31.20
2009,06,03,15,39,31.10
2009,06,03,15,40,31.00
2009,06,03,15,41,31.00
2009,06,03,15,42,31.00
2009,06,03,15,43,31.00
2009,06,03,15,44,31.00
2009,06,03,15,45,31.00
2009,06,03,15,46,31.00
2009,06,03,15,47,30.90
2009,06,03,15,48,30.80
2009,06,03,15,49,30.80
2009,06,03,15,50,30.80
2009,06,03,15,51,30.80
2009,06,03,15,52,30.80
2009,06,03,15,53,30.80
2009,06,03,15,54,30.80
2009,06,03,15,55,30.90
2009,06,03,15,56,31.00
2009,06,03,15,57,31.00
2009,06,03,15,58,31.10
2009,06,03,15,59,31.10
2009,06,03,16,00,31.10
2009,06,03,16,01,31.00
2009,06,03,16,02,30.90
2009,06,03,16,03,30.90
2009,06,03,16,04,30.90
2009,06,03,16,05,30.80
2009,06,03,16,06,30.80
2009,06,03,16,07,30.90
2009,06,03,16,08,30.90
2009,06,03,16,09,30.90
2009,06,03,16,10,31.00
2009,06,03,16,11,31.00
2009,06,03,16,12,30.90
2009,06,03,16,13,30.90
2009,06,03,16,14,30.80
2009,06,03,16,15,30.80
2009,06,03,16,16,30.80
2009,06,03,16,17,30.80
2009,06,03,16,18,30.90
2009,06,03,16,19,30.90
2009,06,03,16,20,30.90
2009,06,03,16,21,31.00
2009,06,03,16,22,31.00
2009,06,03,16,23,31.10
2009,06,03,16,24,31.10
2009,06,03,16,25,31.10
2009,06,03,16,26,31.10
2009,06,03,16,27,31.20
2009,06,03,16,28,31.30
2009,06,03,16,29,31.40
2009,06,03,16,30,31.40
2009,06,03,16,31,31.50
2009,06,03,16,32,31.50
2009,06,03,16,33,31.50
2009,06,03,16,34,31.40
2009,06,03,16,35,31.40
2009,06,03,16,36,31.30
2009,06,03,16,37,31.30
2009,06,03,16,38,31.30
2009,06,03,16,39,31.30
2009,06,03,16,40,31.30
2009,06,03,16,41,31.20
2009,06,03,16,42,31.20
2009,06,03,16,43,31.20
2009,06,03,16,44,31.20
2009,06,03,16,45,31.10
2009,06,03,16,46,31.10
2009,06,03,16,47,31.10
2009,06,03,16,48,31.10
2009,06,03,16,49,31.10
2009,06,03,16,50,31.20
2009,06,03,16,51,31.20
2009,06,03,16,52,31.20
2009,06,03,16,53,31.20
2009,06,03,16,54,31.20
2009,06,03,16,55,31.20
2009,06,03,16,56,31.20
2009,06,03,16,57,31.20
2009,06,03,16,58,31.20
2009,06,03,16,59,31.20
2009,06,03,17,00,31.20
2009,06,03,17,01,31.20
2009,06,03,17,02,31.10
2009,06,03,17,03,31.10
2009,06,03,17,04,31.10
2009,06,03,17,05,31.10
2009,06,03,17,06,31.10
2009,06,03,17,07,31.10
2009,06,03,17,08,31.10
2009,06,03,17,09,31.10
2009,06,03,17,10,31.10
2009,06,03,17,11,31.10
2009,06,03,17,12,31.10
2009,06,03,17,13,31.20
2009,06,03,17,14,31.20
2009,06,03,17,15,31.30
2009,06,03,17,16,31.30
2009,06,03,17,17,31.30
2009,06,03,17,18,31.30
2009,06,03,17,19,31.30